Location: Bridgewater Hill Observatory
(43.5992°N, 72.6989°W)
Time: 04:24:17
(UTC-04:00)

Daily predictions for brighter satellites

Satellite Brightness Start Highest point End
(mag) Time Altitude Azimuth Time Altitude Azimuth Time Altitude Azimuth
CZ-4 R/B 3.8 00:00:44 10° NNE 00:05:47 83° WNW 00:06:23 69° SW
Cosmos 923 Rocket 4.1 00:07:50 59° ESE 00:07:59 59° ESE 00:13:09 10° NNE
Cosmos 1680 Rocket 3.9 00:09:10 46° E 00:09:10 46° E 00:14:01 10° NNE
Cosmos 2237 Rocket 2.3 00:04:41 10° NNW 00:10:19 61° WSW 00:11:02 56° SW
Cosmos 2082 3.6 00:16:49 63° SSW 00:17:50 89° ESE 00:23:35 10° NNE
CZ-4B R/B 3.5 00:15:13 10° NNE 00:20:18 66° ESE 00:20:34 65° ESE
Cosmos 1378 3.9 00:22:47 52° N 00:22:47 52° N 00:25:44 10° N
H-2A R/B 2.1 00:26:57 75° NNE 00:26:57 75° NNE 00:30:58 10° NNW
USA 229 DEB 4.1 00:26:18 41° SE 00:26:47 42° ESE 00:33:08 10° NE
USA 229 4.1 00:26:25 41° SE 00:26:53 41° ESE 00:33:14 10° NE
Mayak -1.1 00:23:41 10° N 00:27:37 73° NNW 00:27:37 73° NNW
ERBS 4.1 00:25:13 10° NW 00:27:04 30° NW 00:27:04 30° NW
Cosmos 2266 Rocket 4.0 00:25:16 10° N 00:31:37 75° W 00:33:02 55° SSW
Meteor 2-11 Rocket 4.4 00:32:08 56° SSW 00:33:27 77° W 00:39:34 10° N
CZ-4C R/B 4.3 00:41:55 10° WNW 00:47:23 22° WSW 00:48:29 21° WSW
Cosmos 1400 Rocket 3.2 00:53:58 65° NNE 00:53:58 65° NNE 00:57:32 10° N
COSMOS 2455 3.6 00:50:51 28° WSW 00:53:40 47° NW 00:59:30 10° NNE
Cosmos 1825 Rocket 3.6 00:54:50 76° NNE 00:54:50 76° NNE 00:58:58 10° N
Cosmos 2219 Rocket 4.4 00:57:50 10° W 00:58:59 11° W 00:59:19 11° W
MOS 1 Rocket 4.4 00:56:19 10° NNE 01:01:23 38° E 01:02:02 37° ESE
Cosmos 1238 Rocket 3.1 01:05:17 78° NNW 01:05:17 78° NNW 01:09:07 10° N
Cosmos 1818 4.4 01:13:59 31° W 01:16:02 44° NW 01:21:16 10° NNE
Meteor 1-24 Rocket 3.7 01:15:29 63° SSE 01:16:25 79° E 01:22:21 10° NNE
Cosmos 1244 Rocket 4.5 01:12:04 10° NNW 01:18:21 74° W 01:19:42 56° SSW
ALOS 2 4.5 01:23:42 19° W 01:23:42 19° W 01:26:18 10° NW
Meteor 2-5 Rocket 4.0 01:22:13 51° SW 01:23:24 62° WNW 01:29:16 10° N
Cosmos 2263 Rocket 3.1 01:24:40 33° ESE 01:25:25 35° ESE 01:30:31 10° NE
Cosmos 1745 Rocket 4.1 01:19:06 10° N 01:25:28 69° E 01:27:27 45° SSE
Cosmos 1943 4.0 01:20:01 10° NNW 01:25:30 46° ENE 01:28:31 25° ESE
SL-16 R/B 3.0 01:21:41 10° NW 01:26:44 36° WSW 01:26:44 36° WSW
Cosmos 1371 Rocket 4.0 01:22:21 10° NNW 01:27:32 60° WSW 01:27:39 60° WSW
Cosmos 1315 Rocket 3.1 01:28:22 63° N 01:28:22 63° N 01:31:45 10° N
ISS -1.2 01:26:58 10° NW 01:27:41 15° NW 01:27:41 15° NW
Cosmos 1842 Rocket 4.3 01:26:37 10° N 01:30:47 42° ENE 01:31:17 40° E
Cosmos 1908 3.7 01:28:31 10° N 01:31:47 59° NNE 01:31:47 59° NNE
GEOS 3 Rocket 4.4 01:27:31 10° NE 01:32:22 35° ESE 01:32:35 35° SE
Cosmos 1300 4.3 01:37:09 10° NNE 01:40:28 27° ENE 01:40:59 26° E
Cosmos 1726 2.7 01:37:08 10° N 01:40:17 53° NE 01:40:17 53° NE
Cosmos 1452 Rocket 3.9 01:37:01 10° NNW 01:42:15 59° ENE 01:44:06 38° SE
S3M 3.9 01:41:11 54° SSW 01:42:45 85° W 01:49:04 10° N
Cosmos 1953 Rocket 4.3 01:43:34 39° WNW 01:43:34 39° WNW 01:47:36 10° N
Cosmos 1437 4.4 01:40:47 10° N 01:42:39 33° N 01:42:39 33° N
Cosmos 158 Rocket 4.4 01:43:12 48° SE 01:44:02 54° ESE 01:49:17 10° NNE
Cosmos 2056 Rocket 3.6 01:39:26 10° NNW 01:44:25 53° WSW 01:44:26 53° WSW
ADEOS Rocket 4.1 01:40:12 10° N 01:44:51 28° WNW 01:46:45 23° W
Cosmos 2297 Rocket 4.3 01:41:29 11° W 01:45:21 19° NW 01:49:23 10° N
Cosmos 1346 Rocket 3.0 01:41:57 10° NNW 01:45:13 62° NNW 01:45:13 62° NNW
CZ-4C R/B 3.9 01:49:10 43° N 01:49:10 43° N 01:51:33 10° NNW
Cosmos 2227 Rocket 4.5 01:45:23 10° W 01:48:59 17° NW 01:52:37 10° N
Cosmos-2242 3.7 01:45:14 10° NNW 01:48:51 41° WNW 01:48:51 41° WNW
Cosmos 1386 Rocket 4.4 01:48:45 10° N 01:55:07 87° W 01:57:06 47° S
NOSS 3-1 (C) 3.3 01:56:13 52° SW 01:57:47 88° NW 02:04:16 10° NE
Cosmos 1603 3.7 01:52:59 10° NNW 01:58:34 60° WSW 01:59:24 54° SSW
Landsat 5 3.4 01:59:11 71° ESE 01:59:26 74° ENE 02:03:27 10° N
Meteor 2-13 Rocket 4.3 01:55:29 10° N 02:01:34 78° W 02:03:19 48° S
Cosmos 1709 Rocket 4.2 01:56:00 10° N 02:02:22 67° E 02:05:22 33° SSE
Cosmos 1420 Rocket 3.9 02:05:34 10° NNW 02:10:49 88° ENE 02:12:23 47° SSE
Cosmos 2285 Rocket 4.2 02:11:29 40° S 02:13:48 65° ESE 02:20:06 10° NNE
SL-14 R/B 3.2 02:15:20 71° ESE 02:15:26 71° E 02:19:17 10° NNE
CZ-4B R/B 1.7 02:15:56 64° NNW 02:15:56 64° NNW 02:18:52 10° NNW
USA 229 DEB 4.4 02:13:42 23° WSW 02:17:39 46° NW 02:24:20 10° NNE
USA 229 4.4 02:13:49 23° WSW 02:17:45 47° NW 02:24:26 10° NNE
SeaSat 1 4.0 02:13:54 10° ESE 02:18:19 34° NE 02:22:45 10° N
NOSS 3-1 (A) 3.3 02:16:40 46° SW 02:18:32 90° S 02:25:03 10° NE
Cosmos 1626 3.0 02:22:28 38° ESE 02:22:58 40° E 02:26:29 10° NNE
Cosmos 1076 Rocket 4.1 02:22:38 40° SE 02:23:42 50° E 02:27:54 10° NNE
Spot 2 4.4 02:20:18 10° NNE 02:25:24 79° WNW 02:26:39 51° SSW
Cosmos 1674 4.2 02:26:46 25° WNW 02:26:46 25° WNW 02:29:43 10° NNW
USA 267 4.1 02:21:30 10° ENE 02:27:22 35° SE 02:29:44 27° SSE
CZ-2D R/B 3.0 02:22:30 10° NNE 02:27:24 40° E 02:29:48 26° SSE
Cosmos 1328 4.5 02:28:03 40° SE 02:28:53 48° E 02:32:45 10° NNE
Meteor 1-21 Rocket 4.4 02:30:51 41° SSW 02:32:55 70° WNW 02:38:52 10° N
Cosmos 1689 Rocket 3.1 02:34:06 40° NW 02:34:06 40° NW 02:36:24 10° NNW
SL-08 R/B 3.8 02:31:46 24° SE 02:34:40 61° ENE 02:39:31 10° N
Cosmos 2221 2.5 02:32:29 10° NNW 02:36:53 72° W 02:37:43 55° SSW
ARIANE 5 R/B 3.9 02:33:52 10° NE 02:38:20 30° E 02:41:22 17° SSE
Cosmos 1340 3.0 02:35:41 10° NNW 02:39:08 47° W 02:39:08 47° W
Genesis I 3.1 02:38:54 67° SSW 02:39:24 87° SE 02:43:28 10° NE
Meteor 2-19 Rocket 4.4 02:38:01 10° N 02:44:07 89° E 02:47:41 27° S
Resurs 1-4 Rocket 2.4 02:40:46 10° NNE 02:46:01 61° E 02:48:39 29° S
Aureole 1 Rocket 3.2 02:50:34 35° WNW 02:50:34 35° WNW 02:53:16 10° N
Cosmos 1844 Rocket 3.8 02:47:20 21° SSE 02:50:29 37° ESE 02:55:39 10° NE
OAO 2 Rocket 4.3 02:54:01 27° SSE 02:54:01 27° SSE 02:57:53 10° ESE
IRS-P3 4.1 02:48:27 10° NNE 02:53:49 89° ESE 02:56:17 33° SSW
NPP 3.6 02:51:09 10° NNE 02:56:33 79° WNW 02:59:02 33° SSW
DELTA 2 R/B (1) 3.8 02:55:45 26° WSW 02:58:30 46° SSW 03:03:50 10° ESE
PSLV R/B 4.4 02:57:01 19° SSE 02:59:52 61° ENE 03:04:02 10° N
MOZ.5/SAFIR/RUBIN 5/SL-8 4.0 02:59:01 17° SSE 03:02:38 71° ENE 03:07:24 10° N
SL-16 R/B 2.5 03:00:50 22° S 03:05:05 72° WSW 03:11:18 10° NNW
ADEOS II 4.1 03:01:40 10° NE 03:05:40 22° E 03:09:38 10° SE
Cosmos 1703 3.3 03:07:23 34° S 03:09:01 75° E 03:12:59 10° NNE
Cosmos 2263 Rocket 3.1 03:06:21 23° WSW 03:09:16 38° WNW 03:14:35 10° NNE
Cosmos 1943 4.1 03:04:33 10° NW 03:09:17 28° WSW 03:10:17 26° WSW
Cosmos 1766 Rocket 3.5 03:08:01 32° S 03:10:01 83° E 03:14:25 10° N
GEOS 3 Rocket 4.3 03:05:22 10° NNE 03:10:28 46° NW 03:13:41 21° WSW
Cosmos 921 Rocket 2.9 03:06:34 10° NNW 03:10:51 71° WSW 03:13:09 27° S
NOSS 2-3 (D) 3.8 03:10:35 33° SSW 03:12:41 82° SE 03:18:02 10° NE
Cosmos 2228 Rocket 4.5 03:09:57 10° N 03:14:16 39° ENE 03:18:32 10° SE
BREEZE M DEB (TANK) 3.1 03:10:48 23° SW 03:15:35 64° SSE 03:18:46 10° ENE
Cosmos 1300 4.3 03:13:08 10° NW 03:15:58 20° W 03:15:58 20° W
Cosmos 1331 Rocket 3.9 03:11:11 10° NNW 03:16:23 86° ENE 03:21:32 10° SSE
Meteor 1-11 4.2 03:14:14 25° S 03:17:39 88° W 03:23:21 10° N
Cosmos 1269 Rocket 4.3 03:16:04 28° SW 03:18:43 57° WNW 03:23:58 10° NNE
UNKNOWN OBJECT B 4.1 03:16:56 10° NNE 03:20:22 33° E 03:23:12 14° SSE
Cosmos 1809 Rocket 4.5 03:15:29 10° N 03:21:37 81° E 03:27:41 10° S
H-2A R/B 3.0 03:20:24 10° N 03:24:45 51° WNW 03:26:47 28° SW
Cosmos 1515 Rocket 4.3 03:21:46 10° N 03:26:01 51° E 03:30:14 10° SSE
Meteor 2-2 Rocket 4.3 03:20:25 10° NNW 03:26:07 61° W 03:30:15 18° S
Cosmos 1455 2.0 03:22:34 10° NNW 03:26:21 75° W 03:28:26 25° S
COSMOS 2406 3.7 03:25:50 10° NNW 03:31:36 64° ENE 03:37:19 10° SE
Cosmos 2251 Rocket 4.0 03:27:51 16° S 03:32:00 57° ESE 03:37:16 10° NNE
NOSS 2-3 (E) 4.0 03:30:40 25° SW 03:33:24 66° NW 03:38:50 10° NNE
Helios 1A Rocket 3.5 03:29:54 10° NNE 03:33:56 53° E 03:37:08 15° S
Cosmos 1869 4.5 03:32:32 10° N 03:36:18 42° ENE 03:40:03 10° SSE
Cosmos 1408 Rocket 3.6 03:34:24 25° SSW 03:36:48 61° W 03:41:08 10° N
Geosat 4.0 03:32:05 10° NNE 03:37:09 89° SE 03:40:39 20° SSW
Cosmos 2058 2.9 03:34:44 21° S 03:37:28 86° W 03:41:44 10° N
ADEOS 4.0 03:32:37 10° NNE 03:37:47 59° ESE 03:42:42 11° S
Cosmos 1151 Rocket 3.3 03:33:57 10° N 03:38:20 70° E 03:42:39 10° SSE
Timation 1 Rocket 4.4 03:36:42 18° SSW 03:41:14 75° ESE 03:47:12 10° NNE
ATLAS 2AS CENTAUR R/B 3.6 03:35:04 13° S 03:41:47 52° ESE 03:49:35 10° NE
CRYOSAT 2 4.4 03:39:49 16° S 03:43:42 65° W 03:48:36 10° N
CZ-2D R/B 3.7 03:42:51 10° NNE 03:47:19 77° ESE 03:51:12 13° S
Cosmos 2074 Rocket 4.4 03:42:27 10° NNW 03:48:19 46° W 03:53:18 14° SSW
Nadezhda 1 Rocket 4.1 03:45:18 16° SSW 03:50:21 66° W 03:56:39 10° N
Cosmos 1607 4.4 03:44:36 10° NW 03:50:31 41° WSW 03:56:19 10° S
SAR-Lupe-2 3.6 03:48:38 15° S 03:51:26 56° W 03:54:58 10° NNW
Cosmos 2184 Rocket 4.5 03:47:50 10° NNW 03:53:48 44° W 03:59:10 13° SSW
SeaSat 1 3.0 03:51:17 10° S 03:55:46 36° WSW 04:00:19 10° NW
Spot 4 Rocket 4.4 03:51:08 10° N 03:56:07 52° WNW 04:00:05 16° SW
Cosmos 2154 Rocket 4.0 03:50:04 10° NNW 03:56:21 72° W 04:02:38 10° S
Cosmos 1626 4.2 03:57:05 12° W 03:58:30 14° WNW 04:00:28 10° NW
CZ-2D R/B 3.3 04:02:56 10° N 04:07:17 27° WNW 04:11:07 12° WSW
Cosmos 1743 Rocket 3.7 04:04:18 14° SSW 04:07:59 57° W 04:12:16 10° N
Cosmos 1295 Rocket 4.4 04:04:17 10° N 04:10:23 84° W 04:16:31 10° S
USA 267 3.4 04:04:10 10° NE 04:10:41 73° NW 04:17:05 11° WSW
Cosmos 2151 3.5 04:07:27 14° SSW 04:10:52 45° WNW 04:15:02 10° N
ARIANE 5 R/B 3.4 04:12:53 10° N 04:17:27 34° WNW 04:21:43 11° SW
Cosmos 405 Rocket 2.7 04:14:19 10° NNW 04:18:08 61° W 04:21:50 10° S
ATLAS 3B R/B 3.2 04:15:06 10° NNW 04:21:43 63° NE 04:28:12 10° SE
Cosmos 1805 Rocket 4.2 04:18:08 10° S 04:22:21 55° E 04:26:37 10° NNE
Cosmos 2218 Rocket 4.4 04:16:45 10° N 04:22:56 69° E 04:29:02 10° SSE
Meteor 2-10 Rocket 3.5 04:19:01 10° NNW 04:24:01 61° W 04:28:55 10° S
Resurs 1-4 Rocket 3.7 04:21:39 10° NNW 04:25:23 20° WNW 04:29:07 10° WSW
BREEZE-M DEB (TANK) 3.2 04:19:50 10° WSW 04:26:53 76° SSE 04:29:55 10° ENE
Cosmos 220 Rocket 4.4 04:24:16 10° SW 04:28:25 49° WNW 04:32:37 10° N
In-Cosmos 22 Rocket 4.4 04:26:37 10° S 04:32:01 71° E 04:37:22 10° NNE
CZ-4B R/B 4.2 04:29:22 10° NNE 04:32:40 34° E 04:36:00 10° SSE
Cosmos 1844 Rocket 3.6 04:29:11 10° WSW 04:34:22 36° NW 04:39:35 10° N
OAO 2 Rocket 4.3 04:33:32 10° WSW 04:37:48 29° S 04:42:00 10° SE
Cosmos 1441 Rocket 4.4 04:37:54 10° NW 04:41:16 27° W 04:44:35 10° SSW
Cosmos 1707 Rocket 4.0 04:37:25 10° N 04:41:54 69° E 04:46:20 10° SSE
Cosmos 2278 Rocket 2.3 04:38:48 10° SSW 04:44:28 82° WNW 04:50:12 10° NNE
USA 234 3.4 04:38:05 10° SE 04:44:37 90° SSW 04:51:12 10° NW
ADEOS II 2.4 04:40:34 10° N 04:45:39 51° WNW 04:50:43 10° SW
